This is the latest recevied weather packets stored in our database for station/object SP1BMW-13. If no packets are shown the sender has not sent any weather packets the latest 10 day(s).
| Time | Temp. | Humidity | Pressure | Rain* | Wind** | Luminosity | Snow |
|---|---|---|---|---|---|---|---|
| 1777359055 | 8.33° C | 44% | 1026.5 hPa | 0 mm | 0.45 m/s, 84° | 264 W/m² | - |
| 1777358995 | 8.33° C | 44% | 1026.5 hPa | 0 mm | 1.34 m/s, 39° | 262 W/m² | - |
| 1777358934 | 8.33° C | 43% | 1026.6 hPa | 0 mm | 0.45 m/s, 44° | 261 W/m² | - |
| 1777358875 | 8.33° C | 45% | 1026.5 hPa | 0 mm | 0.89 m/s, 37° | 260 W/m² | - |
| 1777358815 | 8.33° C | 44% | 1026.6 hPa | 0 mm | 0.45 m/s, 113° | 259 W/m² | - |
| 1777358755 | 8.33° C | 44% | 1026.6 hPa | 0 mm | 1.79 m/s, 55° | 256 W/m² | - |
| 1777358695 | 8.33° C | 45% | 1026.6 hPa | 0 mm | 0.89 m/s, 70° | 255 W/m² | - |
| 1777358635 | 8.33° C | 44% | 1026.8 hPa | 0 mm | 1.34 m/s, 46° | 252 W/m² | - |
| 1777358575 | 8.33° C | 44% | 1026.6 hPa | 0 mm | 1.34 m/s, 66° | 248 W/m² | - |
| 1777358515 | 8.33° C | 43% | 1026.5 hPa | 0 mm | 0.89 m/s, 45° | 244 W/m² | - |
| 1777358455 | 8.33° C | 45% | 1026.4 hPa | 0 mm | 0.89 m/s, 53° | 243 W/m² | - |
| 1777358394 | 8.33° C | 44% | 1026.7 hPa | 0 mm | 0.89 m/s, 26° | 240 W/m² | - |
| 1777358335 | 8.33° C | 45% | 1026.7 hPa | 0 mm | 1.34 m/s, 63° | 235 W/m² | - |
| 1777358275 | 8.33° C | 44% | 1026.5 hPa | 0 mm | 1.34 m/s, 86° | 236 W/m² | - |
| 1777358214 | 8.33° C | 43% | 1026.7 hPa | 0 mm | 1.34 m/s, 77° | 233 W/m² | - |
| 1777358154 | 8.33° C | 44% | 1026.7 hPa | 0 mm | 1.34 m/s, 76° | 236 W/m² | - |
| 1777358095 | 8.33° C | 45% | 1026.7 hPa | 0 mm | 0.89 m/s, 71° | 234 W/m² | - |
| 1777358035 | 7.78° C | 45% | 1026.6 hPa | 0 mm | 1.34 m/s, 22° | 232 W/m² | - |
| 1777357975 | 7.78° C | 45% | 1026.4 hPa | 0 mm | 0.45 m/s, 53° | 230 W/m² | - |
| 1777357915 | 7.78° C | 45% | 1026.6 hPa | 0 mm | 0 m/s | 226 W/m² | - |
| 1777357855 | 7.78° C | 45% | 1026.5 hPa | 0 mm | 0.89 m/s, 78° | 223 W/m² | - |
| 1777357795 | 7.78° C | 45% | 1026.5 hPa | 0 mm | 0.89 m/s, 43° | 220 W/m² | - |
| 1777357735 | 7.78° C | 47% | 1026.5 hPa | 0 mm | 0.45 m/s, 37° | 219 W/m² | - |
| 1777357674 | 7.78° C | 45% | 1026.4 hPa | 0 mm | 0.89 m/s, 117° | 217 W/m² | - |
| 1777357615 | 7.78° C | 47% | 1026.6 hPa | 0 mm | 0 m/s | 213 W/m² | - |
* Rain latest hour (hover to see other rain measurements)
** Current wind speed in m/s (hover to see current wind gust speed)